{"data":{"norad_id":62986,"intl_designator":"2025-031F","name":"STARLINK-11571 [DTC]","alt_names":[],"object_type":"PAYLOAD","status":"ACTIVE","operator":null,"country":"US","launch_date":"2025-02-11","launch_site_code":"AFETR","launch_vehicle":null,"mission":null,"orbit_class":"UNKNOWN","rcs_meters":null,"size_class":null,"mass_kg":null,"dimensions":null,"purposes":["comms"],"wikipedia_slug":null,"has_3d_model":false,"image_url":null,"decayed_at":null,"tle_current":{"epoch":"2026-09-21T16:40:27.583680Z","epoch_age_seconds":61970,"freshness":"FRESH","line1":"1 62986U 25031F   26264.69476370  .00177709  00000+0  13560-2 0  9991","line2":"2 62986  42.9988 259.5832 0001204 286.3014  73.7722 15.70893243 93572","mean_motion":15.70893243,"eccentricity":0.0001204,"inclination_deg":42.9988,"raan_deg":259.5832,"arg_perigee_deg":286.3014,"mean_anomaly_deg":73.7722,"bstar":0.001356,"rev_number":9357,"period_min":91.667591443068,"perigee_km":355.53205602975,"apogee_km":357.15371878664,"semimajor_km":6734.4798874082,"source":"CELESTRAK","updated_at":"2026-09-22T09:00:49.717298Z"}}}